Flag for Latvia Weather past 2 weeks in Liepāja, Latvia

Now
64 °F

Mild.


Feels Like: 64 °F
Forecast: 64 / 78 °F
Wind: No wind

Location: Liepaja International Airport

Current Time: Jul 23, 2014 at 11:09:22 PM

Latest Report: Jul 23, 2014 at 10:20 PM


Visibility: 4 mi

Pressure: 30.15 "Hg

Humidity: 83%

Dew point: 59 °F

Location of LiepājaLocation

Historic Weather in Liepāja — Graph

°F

Liepāja temperature yesterday

Maximum temperature yesterday: 81 °F (at 2:50 PM)
Minimum temperature yesterday: 59 °F (at 1:50 AM)
Average temperature yesterday: 71 °F

Past Weeks' High & Low Weather Summary

 TemperatureHumidityPressure
High84 °F (Jul 9, 3:50 PM)100% (Jul 13, 10:50 PM)30.18 "Hg (Jul 13, 10:50 PM)
Low50 °F (Jul 12, 1:50 AM)32% (Jul 22, 3:20 PM)29.62 "Hg (Jul 13, 6:20 AM)
Average66 °F76%30.00 "Hg
* Reported Jul 8 9:20 PM — Jul 23 9:50 PM, Liepāja, Weather by CustomWeather, © 2014

Note: Actual official high and low records may vary slightly from our data, if they occured in-between our weather recording intervals... More about our weather records

Advertising

Liepāja weather history for previous 24 hours

 ConditionsComfort  
Time TempWeatherWind HumidityBarometerVisibility
9:50 PM
Jul 23
68 °FMild.No wind73%30.12 "Hg4 mi
9:20 PM72 °FMild.No wind65%30.12 "Hg3 mi
8:50 PM75 °FMild.No wind54%30.12 "Hg2 mi
8:20 PM75 °FSunny.3 mph47%30.12 "Hg10 mi
7:50 PM79 °FSunny.6 mph45%30.12 "Hg10 mi
7:20 PM79 °FSunny.7 mph45%30.12 "Hg10 mi
6:50 PM81 °FSunny.5 mph42%30.09 "Hg10 mi
6:20 PM79 °FSunny.No wind58%30.09 "Hg10 mi
5:50 PM81 °FSunny.3 mph54%30.12 "Hg10 mi
5:20 PM81 °FSunny.3 mph58%30.12 "Hg10 mi
4:50 PM77 °FPassing clouds.3 mph69%30.12 "HgN/A
4:20 PM73 °FPassing clouds.5 mph74%30.12 "HgN/A
2:50 PM75 °FSunny.3 mph61%30.15 "Hg10 mi
2:20 PM75 °FPassing clouds.6 mph61%30.15 "HgN/A
1:50 PM75 °FPassing clouds.5 mph61%30.15 "HgN/A
1:20 PM81 °FSunny.3 mph48%30.18 "Hg10 mi
12:50 PM79 °FPassing clouds.9 mph45%30.18 "HgN/A
12:20 PM79 °FSunny.10 mph45%30.18 "Hg10 mi
8:20 AM70 °FSunny.8 mph69%30.18 "Hg10 mi
7:50 AM66 °FSunny.7 mph78%30.18 "Hg10 mi
7:20 AM64 °FSunny.3 mph83%30.18 "Hg10 mi
6:50 AM61 °FClear.2 mph88%30.18 "Hg10 mi
6:20 AM57 °FClear.No wind94%30.18 "Hg10 mi
5:50 AM55 °FClear.2 mph100%30.18 "Hg10 mi
5:20 AM54 °FFog.No wind100%30.18 "Hg6 mi
4:50 AM55 °FClear.1 mph94%30.18 "Hg10 mi
4:20 AM55 °FClear.1 mph94%30.18 "Hg10 mi
3:50 AM55 °FClear.2 mph94%30.18 "Hg10 mi
2:50 AM57 °FClear.No wind88%30.18 "Hg10 mi
Weather by CustomWeather, © 2014

See weather overviewHow to use our weather pages